Previsão horária em Cesarka

Hoje, 25 Julho, Domingo

Tempo Temperatura Precipitação Vento Pressão Humidade
00:00 +20°C° 0 mm 3 m/s 745 mmHg 65%
01:00 +20°C° 0 mm 3 m/s 745 mmHg 65%
02:00 +20°C° 0 mm 3 m/s 745 mmHg 68%
03:00 +19°C° 0 mm 3 m/s 745 mmHg 71%
04:00 +19°C° 0 mm 2 m/s 745 mmHg 74%
05:00 +20°C° 0 mm 3 m/s 745 mmHg 71%
06:00 +21°C° 0 mm 3 m/s 745 mmHg 69%
07:00 +22°C° 0 mm 3 m/s 745 mmHg 68%
08:00 +25°C° 0 mm 3 m/s 745 mmHg 62%
09:00 +26°C° 0 mm 3 m/s 745 mmHg 55%
10:00 +28°C° 0 mm 3 m/s 745 mmHg 49%
11:00 +28°C° 0 mm 3 m/s 745 mmHg 48%
12:00 +28°C° 0 mm 3 m/s 745 mmHg 48%
13:00 +29°C° 0 mm 4 m/s 745 mmHg 48%
14:00 +28°C° 0 mm 3 m/s 745 mmHg 50%
15:00 +27°C° 0 mm 3 m/s 745 mmHg 52%
16:00 +27°C° 0 mm 3 m/s 745 mmHg 54%
17:00 +25°C° 0.1 mm 2 m/s 745 mmHg 61%
18:00 +24°C° 0.1 mm 2 m/s 745 mmHg 67%
19:00 +23°C° 0.1 mm 2 m/s 745 mmHg 73%
20:00 +23°C° 0 mm 2 m/s 745 mmHg 71%
21:00 +22°C° 0 mm 3 m/s 745 mmHg 69%
22:00 +22°C° 0 mm 3 m/s 745 mmHg 67%
23:00 +21°C° 0 mm 3 m/s 744 mmHg 68%

Amanhã, 26 Julho, Segunda-feira

Tempo Temperatura Precipitação Vento Pressão Humidade
00:00 +21°C° 0 mm 4 m/s 744 mmHg 69%
01:00 +21°C° 0 mm 4 m/s 744 mmHg 70%
02:00 +20°C° 0 mm 4 m/s 744 mmHg 74%
03:00 +19°C° 0 mm 3 m/s 743 mmHg 77%
04:00 +18°C° 0 mm 3 m/s 743 mmHg 81%
05:00 +20°C° 0 mm 3 m/s 743 mmHg 78%
06:00 +21°C° 0 mm 3 m/s 743 mmHg 74%
07:00 +22°C° 0 mm 4 m/s 743 mmHg 71%
08:00 +24°C° 0 mm 3 m/s 743 mmHg 66%
09:00 +26°C° 0 mm 3 m/s 744 mmHg 61%
10:00 +27°C° 0 mm 3 m/s 744 mmHg 56%
11:00 +28°C° 0.2 mm 3 m/s 744 mmHg 57%
12:00 +28°C° 0.2 mm 4 m/s 743 mmHg 57%
13:00 +29°C° 0.2 mm 4 m/s 743 mmHg 57%
14:00 +28°C° 0.3 mm 4 m/s 743 mmHg 59%
15:00 +28°C° 0.3 mm 3 m/s 743 mmHg 60%
16:00 +28°C° 0.3 mm 3 m/s 743 mmHg 62%
17:00 +26°C° 1.9 mm 3 m/s 743 mmHg 71%
18:00 +24°C° 1.9 mm 3 m/s 743 mmHg 80%
19:00 +21°C° 1.9 mm 3 m/s 743 mmHg 90%
20:00 +21°C° 0.2 mm 3 m/s 743 mmHg 90%
21:00 +20°C° 0.2 mm 2 m/s 743 mmHg 90%
22:00 +20°C° 0.2 mm 2 m/s 743 mmHg 91%
23:00 +20°C° 0 mm 2 m/s 743 mmHg 91%

Depois de amanhã, 27 Julho, Terça-feira

Tempo Temperatura Precipitação Vento Pressão Humidade
00:00 +19°C° 0 mm 2 m/s 743 mmHg 91%
01:00 +19°C° 0 mm 2 m/s 743 mmHg 91%
02:00 +19°C° 0 mm 3 m/s 743 mmHg 90%
03:00 +19°C° 0 mm 3 m/s 743 mmHg 90%
04:00 +19°C° 0 mm 3 m/s 743 mmHg 89%
05:00 +20°C° 0 mm 3 m/s 743 mmHg 85%
06:00 +21°C° 0 mm 3 m/s 743 mmHg 81%
07:00 +23°C° 0 mm 2 m/s 744 mmHg 77%
08:00 +24°C° 0 mm 3 m/s 744 mmHg 74%
09:00 +24°C° 0 mm 3 m/s 744 mmHg 71%
10:00 +25°C° 0 mm 4 m/s 745 mmHg 68%
11:00 +26°C° 0.1 mm 4 m/s 745 mmHg 65%
12:00 +27°C° 0.1 mm 4 m/s 745 mmHg 63%
13:00 +28°C° 0.1 mm 4 m/s 745 mmHg 60%
14:00 +28°C° 0.3 mm 4 m/s 745 mmHg 59%
15:00 +28°C° 0.3 mm 3 m/s 745 mmHg 57%
16:00 +28°C° 0.3 mm 3 m/s 745 mmHg 56%
17:00 +27°C° 0.3 mm 3 m/s 745 mmHg 61%
18:00 +26°C° 0.3 mm 2 m/s 745 mmHg 65%
19:00 +25°C° 0.3 mm 2 m/s 744 mmHg 70%
20:00 +24°C° 0 mm 2 m/s 745 mmHg 70%
21:00 +24°C° 0 mm 2 m/s 745 mmHg 70%
22:00 +23°C° 0 mm 2 m/s 745 mmHg 70%
23:00 +23°C° 0 mm 2 m/s 745 mmHg 69%

28 Julho, Quarta-feira

Tempo Temperatura Precipitação Vento Pressão Humidade
00:00 +21°C° 0 mm 2 m/s 745 mmHg 69%
01:00 +21°C° 0 mm 2 m/s 745 mmHg 69%
02:00 +21°C° 0 mm 2 m/s 745 mmHg 68%
03:00 +21°C° 0 mm 2 m/s 745 mmHg 68%
04:00 +20°C° 0 mm 2 m/s 745 mmHg 67%
05:00 +21°C° 0 mm 2 m/s 745 mmHg 65%
06:00 +24°C° 0 mm 2 m/s 745 mmHg 63%
07:00 +25°C° 0 mm 2 m/s 745 mmHg 61%
08:00 +26°C° 0 mm 2 m/s 745 mmHg 57%
09:00 +27°C° 0 mm 3 m/s 745 mmHg 54%
10:00 +28°C° 0 mm 3 m/s 745 mmHg 51%
11:00 +29°C° 0 mm 3 m/s 745 mmHg 48%
12:00 +29°C° 0 mm 2 m/s 745 mmHg 46%
13:00 +30°C° 0 mm 2 m/s 745 mmHg 43%
14:00 +30°C° 0 mm 3 m/s 745 mmHg 45%
15:00 +29°C° 0 mm 3 m/s 745 mmHg 47%
16:00 +29°C° 0 mm 3 m/s 745 mmHg 49%
17:00 +27°C° 0.1 mm 4 m/s 745 mmHg 56%
18:00 +25°C° 0.1 mm 4 m/s 745 mmHg 62%
19:00 +22°C° 0.1 mm 4 m/s 745 mmHg 69%
20:00 +21°C° 0.3 mm 4 m/s 745 mmHg 74%
21:00 +20°C° 0.3 mm 4 m/s 745 mmHg 79%
22:00 +19°C° 0.3 mm 3 m/s 745 mmHg 85%
23:00 +19°C° 0.8 mm 3 m/s 746 mmHg 87%

29 Julho, Quinta-feira

Tempo Temperatura Precipitação Vento Pressão Humidade
00:00 +19°C° 0.8 mm 3 m/s 746 mmHg 90%
01:00 +19°C° 0.8 mm 3 m/s 746 mmHg 93%
02:00 +18°C° 0.1 mm 3 m/s 746 mmHg 93%
03:00 +18°C° 0.1 mm 3 m/s 746 mmHg 93%
04:00 +18°C° 0.1 mm 2 m/s 746 mmHg 93%
05:00 +18°C° 0 mm 3 m/s 746 mmHg 89%
06:00 +19°C° 0 mm 3 m/s 746 mmHg 86%
07:00 +20°C° 0 mm 3 m/s 747 mmHg 82%
08:00 +21°C° 0 mm 3 m/s 747 mmHg 75%
09:00 +24°C° 0 mm 3 m/s 747 mmHg 68%
10:00 +25°C° 0 mm 3 m/s 747 mmHg 61%
11:00 +26°C° 0 mm 2 m/s 747 mmHg 57%
12:00 +27°C° 0 mm 2 m/s 746 mmHg 53%
13:00 +28°C° 0 mm 2 m/s 746 mmHg 48%
14:00 +28°C° 0 mm 2 m/s 746 mmHg 47%
15:00 +28°C° 0 mm 2 m/s 746 mmHg 46%
16:00 +28°C° 0 mm 2 m/s 745 mmHg 44%
17:00 +27°C° 0 mm 1 m/s 745 mmHg 48%
18:00 +26°C° 0 mm 1 m/s 745 mmHg 53%
19:00 +25°C° 0 mm 1 m/s 745 mmHg 57%
20:00 +25°C° 0 mm 2 m/s 745 mmHg 57%
21:00 +24°C° 0 mm 2 m/s 745 mmHg 58%
22:00 +23°C° 0 mm 2 m/s 745 mmHg 58%
23:00 +22°C° 0 mm 3 m/s 744 mmHg 60%

30 Julho, Sexta-feira

Tempo Temperatura Precipitação Vento Pressão Humidade
00:00 +22°C° 0 mm 3 m/s 744 mmHg 61%
01:00 +21°C° 0 mm 3 m/s 744 mmHg 63%
02:00 +21°C° 0 mm 3 m/s 744 mmHg 67%
03:00 +20°C° 0 mm 3 m/s 744 mmHg 71%
04:00 +20°C° 0 mm 3 m/s 744 mmHg 75%
05:00 +21°C° 0 mm 4 m/s 743 mmHg 71%
06:00 +22°C° 0 mm 4 m/s 743 mmHg 67%
07:00 +25°C° 0 mm 5 m/s 743 mmHg 63%
08:00 +26°C° 0 mm 5 m/s 743 mmHg 58%
09:00 +28°C° 0 mm 5 m/s 743 mmHg 53%
10:00 +29°C° 0 mm 5 m/s 742 mmHg 48%
11:00 +30°C° 0 mm 5 m/s 742 mmHg 45%
12:00 +32°C° 0 mm 5 m/s 741 mmHg 42%
13:00 +33°C° 0 mm 5 m/s 741 mmHg 39%
14:00 +33°C° 0 mm 5 m/s 741 mmHg 42%
15:00 +32°C° 0 mm 5 m/s 741 mmHg 45%
16:00 +30°C° 0 mm 5 m/s 741 mmHg 48%
17:00 +29°C° 0.1 mm 5 m/s 741 mmHg 57%
18:00 +27°C° 0.1 mm 4 m/s 741 mmHg 65%
19:00 +25°C° 0.1 mm 4 m/s 741 mmHg 74%
20:00 +24°C° 0.6 mm 3 m/s 741 mmHg 78%
21:00 +22°C° 0.6 mm 3 m/s 741 mmHg 82%
22:00 +21°C° 0.6 mm 2 m/s 741 mmHg 86%
23:00 +20°C° 0 mm 2 m/s 742 mmHg 87%
Mostrar mais

Necessitamos do seu Consentimento

A Meteoprog e os seus Fornecedores de Serviços podem armazenar e aceder a dados pessoais como cookies, identificadores do dispositivo ou outras tecnologias semelhantes existentes no seu dispositivo e processar estes dados para personalizar conteúdos e anúncios, assim como funcionalidades nas redes sociais e análise de tráfego.

  • Armazenar e/ou aceder a informações no seu dispositivo

    Os cookies, identificadores do dispositivo ou outras informações podem ser armazenados ou acedidos no seu dispositivo, para os fins acima indicados.

  • Anúncios e conteúdos personalizados, medição de anúncios e conteúdos, dados sobre o público-alvo e desenvolvimento de produtos

    Os anúncios e os conteúdos podem ser personalizados com base num perfil. Podem ser adicionados dados adicionais para uma maior personalização dos anúncios e dos conteúdos. A eficácia dos anúncios e dos conteúdos pode ser medida. Podem ser obtidas informações sobre o público que visualizou os anúncios e os conteúdos. Estes dados podem ser usados para desenvolver ou melhorar sistemas, softwares ou a experiência do utilizador.

Ao clicar em "Eu concordo”, permitirá o uso de cookies, identificadores do dispositivo e web beacons mencionados ou outras tecnologias semelhantes. As configurações do navegador do seu dispositivo podem ser alteradas.

Para certos fins, podem ser invocados interesses legítimos ao invés de consentimento. Pode ler mais informação sobre este assunto na nossa Política de Privacidade e Cookies.